Temp
61 64 63 63 54 47 42 51 55 61 64 68 71 67 66 64 66 58 74 77 76 74 74 74 73 74 75 75 74 75 76 76 76 76 76 76 76 76 76 76 76 77 78 79 79 78 78 77 76
64 69 64 55 47 40 46 52 55 62 68 71 73 69 67 65 72 72 73 77 76 74 73 74 73 74 74 74 74 74 76 76 76 76 76 76 76 76 76 75 75 76 78 78 78 78 78 76 74
67 68 58 50 41 42 46 54 60 68 71 68 71 71 71 68 73 74 77 77 76 74 74 74 73 73 74 74 74 74 74 75 75 75 76 76 76 76 76 75 75 76 77 78 79 79 76 74 73
65 62 57 49 45 50 52 58 63 65 70 70 68 67 71 75 75 77 77 77 74 73 74 72 72 73 74 74 74 74 74 73 74 74 75 76 76 76 75 74 75 77 77 78 78 77 75 73 72
60 55 48 44 45 52 56 63 65 65 66 70 68 66 66 73 75 76 75 76 74 73 73 72 71 72 73 74 74 74 73 73 73 74 74 75 75 75 75 74 75 76 76 77 76 75 74 73 72
55 52 43 40 46 54 58 63 64 65 66 68 69 66 64 74 73 73 74 73 73 72 72 72 72 72 72 73 73 72 72 72 73 73 73 74 74 74 74 74 74 74 74 74 74 73 73 72 72
52 47 41 40 48 52 60 67 63 64 65 65 70 63 65 70 73 73 73 71 71 71 70 70 71 72 71 71 71 71 71 72 72 72 72 73 72 72 73 73 74 74 73 73 73 73 72 72 71
53 49 39 44 47 49 59 64 65 65 65 73 72 62 61 71 75 71 70 70 71 70 69 69 69 70 70 70 70 70 70 71 71 71 71 71 71 72 72 72 73 73 73 72 73 72 72 71 71
55 44 38 44 47 54 63 60 62 68 66 67 69 67 72 73 73 68 66 67 67 70 68 68 68 69 69 69 70 70 71 70 70 71 70 69 71 71 71 71 71 72 71 71 71 71 70 70 70
51 41 45 54 54 56 62 60 62 62 63 64 66 71 72 74 72 69 67 66 67 68 68 68 68 68 68 71 69 69 70 70 71 71 70 71 73 71 71 70 70 70 70 70 70 70 69 69 67
47 46 52 58 61 59 58 61 63 59 58 64 63 67 70 68 68 67 67 67 67 69 68 69 69 68 68 68 67 67 68 69 71 72 73 72 73 72 71 71 70 69 69 69 69 69 69 68 67
47 54 56 56 60 58 57 60 58 60 62 67 67 68 67 67 67 66 66 68 67 67 68 68 69 69 68 69 67 67 67 67 68 70 71 71 70 70 71 72 72 70 68 69 69 69 69 68 68
51 54 57 57 58 57 60 56 58 58 65 65 67 68 66 66 67 68 68 63 63 61 65 66 66 65 67 69 69 69 68 67 67 67 69 71 70 70 72 72 72 70 69 68 68 69 69 68 67
53 52 53 54 55 56 56 56 54 60 65 64 65 64 65 65 66 67 65 62 60 62 62 62 63 63 65 62 62 63 64 67 68 67 67 68 68 69 69 71 71 71 68 69 68 69 69 69 68
55 49 51 53 52 53 56 49 51 60 60 60 61 63 63 64 65 64 67 60 60 61 61 60 59 60 60 60 60 58 59 62 63 63 66 67 68 68 68 68 69 69 69 68 68 67 67 67 68
47 45 37 49 51 55 49 43 55 57 61 60 58 60 62 64 64 65 59 58 57 58 56 57 60 56 56 56 56 58 57 57 57 60 62 64 65 67 68 68 68 70 68 68 68 67 67 68 67
39 31 36 43 53 50 48 46 52 61 60 58 55 57 57 61 60 55 56 55 55 54 55 54 54 53 53 54 54 54 54 55 55 56 57 60 62 63 62 65 68 68 68 67 68 67 67 67 67
33 33 30 35 46 48 46 47 55 55 54 54 55 56 55 54 52 55 55 54 53 52 53 53 52 51 51 51 51 52 52 52 53 54 56 57 57 59 58 60 63 66 65 66 67 67 67 67 66
41 38 36 40 47 45 45 47 50 52 51 52 55 55 53 51 53 53 53 51 50 50 50 50 49 49 50 48 46 46 46 48 50 52 53 54 54 55 55 56 57 60 65 65 64 65 66 66 65
42 38 38 43 48 45 42 44 50 50 50 53 54 51 51 51 50 51 49 47 47 46 47 48 47 47 47 47 46 45 44 46 48 49 50 51 51 51 53 52 54 56 57 61 65 65 63 63 64
41 38 39 39 41 43 40 38 44 52 52 54 55 55 54 51 48 48 47 46 45 45 46 46 46 46 46 46 46 44 45 45 45 45 47 49 50 51 51 51 52 53 54 55 59 64 64 63 61
35 45 43 40 36 28 39 27 42 44 46 48 48 46 47 47 47 46 44 45 45 44 45 44 44 44 46 46 43 40 39 40 42 43 46 48 50 50 51 51 51 51 53 54 56 61 64 64 59
40 44 41 38 32 29 32 27 32 41 39 41 44 44 43 44 44 44 43 44 45 44 43 42 42 42 42 42 42 42 42 44 45 46 45 46 49 51 52 52 53 52 52 53 54 56 62 64 63
45 41 38 34 31 21 32 31 27 34 35 40 45 45 44 44 44 44 45 44 42 43 43 42 41 41 42 41 41 41 42 42 42 43 43 45 46 48 50 51 51 52 52 53 54 56 59 63 61
38 38 29 23 22 22 35 30 31 35 36 38 38 38 39 39 39 39 41 41 40 40 40 42 40 38 39 39 39 42 42 42 41 41 41 42 43 45 47 48 48 49 51 53 54 54 56 62 61
35 36 28 20 20 23 34 24 31 37 39 39 38 37 37 35 36 37 37 39 41 40 39 39 39 38 38 38 39 40 41 41 41 41 41 42 42 43 45 46 46 47 49 51 52 54 55 59 61
35 30 37 30 29 22 27 31 36 37 36 36 36 36 35 34 34 34 34 36 39 39 39 38 38 37 38 38 39 39 40 39 39 40 41 41 42 43 44 44 45 46 47 49 52 54 55 58 61
40 42 29 29 21 20 26 28 24 31 33 35 34 34 34 35 35 35 34 35 37 39 39 38 37 36 37 38 38 38 39 39 39 39 38 38 39 40 41 42 43 44 46 49 50 52 56 56 60
37 33 34 33 27 22 21 23 31 34 36 35 35 35 34 33 34 34 34 36 37 38 37 35 35 36 36 38 38 37 38 38 38 37 37 37 37 38 38 40 41 42 42 45 45 46 56 55 58
44 40 35 23 23 29 21 22 41 39 40 38 39 36 35 35 34 34 34 36 37 37 35 34 34 34 36 37 37 37 37 37 37 36 36 36 36 37 37 38 39 39 40 41 42 42 45 56 57
MSLP
1011.50 1011.48 1011.44 1011.63 1013.25 1013.85 1013.36 1011.83 1010.32 1009.02 1007.66 1006.38 1005.69 1005.70 1006.07 1006.36 1006.65 1007.09 1006.07 1005.88 1006.20 1006.50 1006.75 1007.24 1007.48 1007.59 1008.00 1008.20 1008.38 1008.50 1008.47 1008.60 1008.98 1009.20 1009.56 1009.73 1009.88 1010.22 1010.56 1011.01 1011.38 1011.69 1012.06 1012.34 1012.58 1012.85 1013.06 1013.48 1013.78
1011.47 1011.36 1011.88 1012.72 1013.74 1014.38 1013.00 1010.97 1009.95 1008.67 1007.51 1006.30 1005.73 1005.42 1005.73 1006.18 1006.13 1006.14 1006.17 1006.10 1006.28 1006.57 1006.83 1007.07 1007.35 1007.42 1007.70 1008.22 1008.48 1008.62 1008.74 1008.78 1009.03 1009.34 1009.66 1009.84 1010.07 1010.37 1010.73 1011.06 1011.45 1011.79 1012.12 1012.39 1012.60 1012.88 1013.21 1013.59 1013.86
1011.35 1011.68 1012.72 1013.76 1014.28 1013.93 1012.66 1010.71 1009.70 1007.92 1006.77 1006.58 1006.01 1005.38 1005.79 1006.17 1006.15 1006.02 1005.69 1005.93 1006.24 1006.68 1006.94 1007.12 1007.20 1007.33 1007.56 1007.91 1008.30 1008.55 1008.84 1009.09 1009.18 1009.33 1009.52 1009.80 1010.00 1010.31 1010.70 1011.09 1011.45 1011.78 1012.04 1012.36 1012.65 1012.83 1013.14 1013.56 1013.90
1011.60 1012.46 1013.80 1013.88 1013.96 1012.98 1011.78 1010.56 1009.47 1008.34 1006.80 1005.84 1005.94 1005.67 1005.78 1005.81 1005.83 1005.68 1005.78 1006.09 1006.34 1006.49 1006.70 1006.99 1007.32 1007.48 1007.65 1008.06 1008.37 1008.61 1008.75 1009.01 1009.27 1009.37 1009.41 1009.69 1009.95 1010.21 1010.57 1011.02 1011.39 1011.63 1011.89 1012.20 1012.53 1012.81 1013.04 1013.39 1013.76
1012.42 1013.41 1014.29 1014.47 1013.61 1012.49 1011.48 1010.42 1009.75 1008.90 1007.76 1006.13 1005.91 1005.83 1006.08 1006.07 1005.90 1005.96 1006.09 1006.19 1006.31 1006.59 1006.61 1006.89 1007.20 1007.65 1007.95 1008.06 1008.32 1008.66 1008.87 1009.00 1009.17 1009.43 1009.46 1009.58 1009.83 1010.15 1010.45 1010.85 1011.29 1011.58 1011.78 1012.02 1012.33 1012.77 1012.99 1013.26 1013.66
1013.47 1014.40 1015.24 1015.06 1013.68 1012.25 1011.42 1010.26 1009.61 1009.19 1008.36 1007.26 1006.73 1006.55 1006.71 1006.55 1006.33 1006.37 1006.49 1006.61 1006.58 1006.64 1006.87 1007.01 1007.23 1007.47 1007.80 1008.10 1008.34 1008.57 1008.84 1009.08 1009.19 1009.35 1009.48 1009.56 1009.73 1010.01 1010.39 1010.75 1011.19 1011.57 1011.78 1011.98 1012.25 1012.60 1012.91 1013.19 1013.49
1013.85 1014.94 1015.41 1015.02 1013.77 1012.15 1011.01 1010.04 1009.89 1009.28 1008.89 1007.99 1007.49 1007.27 1007.21 1006.79 1006.51 1006.53 1006.58 1006.73 1006.81 1006.81 1006.93 1007.05 1007.26 1007.50 1007.77 1008.14 1008.33 1008.48 1008.71 1008.94 1009.12 1009.27 1009.48 1009.64 1009.81 1010.10 1010.41 1010.73 1011.08 1011.54 1011.85 1012.02 1012.31 1012.59 1012.82 1013.10 1013.37
1013.79 1014.94 1015.33 1014.69 1013.67 1012.21 1010.87 1010.46 1010.04 1009.53 1008.54 1007.92 1007.61 1007.82 1007.84 1007.10 1006.62 1006.67 1006.69 1006.80 1006.93 1007.03 1007.17 1007.27 1007.24 1007.52 1007.68 1007.92 1008.21 1008.46 1008.68 1008.80 1008.94 1009.12 1009.35 1009.54 1009.80 1010.01 1010.26 1010.56 1010.97 1011.34 1011.72 1011.96 1012.19 1012.49 1012.74 1012.97 1013.20
1013.50 1014.80 1015.28 1014.39 1013.37 1011.87 1010.95 1010.82 1010.13 1009.36 1008.97 1008.63 1007.94 1007.91 1007.68 1007.20 1007.24 1007.68 1007.45 1007.24 1007.16 1007.26 1007.33 1007.40 1007.65 1007.67 1007.81 1008.04 1008.16 1008.45 1008.63 1008.81 1008.97 1009.16 1009.40 1009.63 1009.79 1009.90 1010.10 1010.38 1010.72 1011.03 1011.44 1011.77 1012.08 1012.47 1012.74 1012.97 1013.18
1013.64 1014.47 1014.29 1013.34 1012.50 1011.89 1011.05 1011.00 1010.46 1009.68 1009.38 1008.71 1008.16 1007.51 1007.50 1007.27 1007.36 1007.67 1007.70 1007.35 1007.23 1007.12 1006.96 1006.97 1007.36 1007.85 1008.08 1008.09 1008.33 1008.54 1008.84 1009.06 1009.24 1009.37 1009.49 1009.59 1009.71 1009.87 1010.05 1010.30 1010.56 1010.89 1011.27 1011.68 1012.11 1012.44 1012.68 1012.96 1013.20
1013.68 1013.74 1013.35 1012.65 1012.13 1011.79 1011.48 1010.97 1010.56 1010.05 1009.55 1009.06 1008.72 1008.27 1007.63 1007.66 1007.65 1007.69 1007.58 1007.57 1006.94 1006.53 1006.59 1006.58 1006.83 1007.32 1007.89 1008.30 1008.50 1008.60 1008.62 1008.91 1009.19 1009.36 1009.47 1009.60 1009.62 1009.82 1009.91 1010.08 1010.33 1010.69 1011.11 1011.58 1012.04 1012.33 1012.58 1012.77 1012.97
1013.82 1013.53 1013.22 1012.71 1012.26 1012.00 1011.65 1011.01 1010.44 1010.05 1009.45 1008.87 1008.83 1008.63 1008.31 1007.83 1007.77 1007.81 1007.53 1007.12 1007.00 1006.65 1006.54 1006.83 1007.20 1007.38 1007.57 1007.76 1008.52 1008.80 1008.80 1008.62 1009.20 1009.26 1009.55 1009.68 1009.87 1009.86 1009.77 1009.73 1009.91 1010.36 1010.68 1010.98 1011.46 1011.96 1012.24 1012.44 1012.62
1013.71 1013.70 1013.45 1012.95 1012.29 1011.86 1011.32 1011.02 1010.47 1009.43 1008.81 1008.91 1008.81 1008.72 1008.47 1008.17 1007.90 1007.29 1007.10 1006.81 1007.05 1007.00 1006.98 1007.20 1007.37 1007.66 1007.89 1008.07 1008.44 1008.73 1008.96 1008.99 1008.97 1009.17 1009.41 1009.58 1009.67 1009.61 1009.67 1009.60 1009.61 1009.75 1010.18 1010.58 1011.14 1011.49 1011.90 1012.18 1012.33
1013.74 1013.68 1013.51 1013.07 1012.41 1011.76 1011.04 1010.55 1010.39 1009.37 1008.83 1008.74 1008.81 1008.73 1008.66 1008.54 1008.15 1007.39 1007.13 1007.17 1007.39 1007.41 1007.38 1007.61 1007.64 1007.54 1007.97 1008.44 1008.57 1008.95 1009.02 1008.94 1008.97 1009.30 1009.50 1009.73 1009.65 1009.59 1009.56 1009.53 1009.61 1009.73 1009.83 1010.16 1010.40 1010.78 1011.11 1011.57 1011.99
1013.86 1014.08 1013.76 1013.03 1012.36 1011.78 1010.98 1010.60 1009.77 1009.42 1009.48 1009.30 1008.97 1008.80 1008.72 1008.65 1008.08 1007.76 1007.16 1007.40 1007.68 1007.90 1007.94 1008.03 1008.13 1008.08 1008.26 1008.78 1008.99 1009.09 1009.25 1009.27 1009.56 1009.69 1009.65 1009.66 1009.73 1009.37 1009.39 1009.43 1009.26 1009.14 1009.02 1009.27 1009.81 1010.41 1010.80 1011.16 1011.50
1014.60 1014.72 1014.55 1013.24 1012.50 1011.68 1011.69 1010.22 1009.66 1009.71 1009.60 1009.64 1009.58 1009.45 1008.99 1008.53 1008.16 1007.26 1007.27 1007.76 1008.11 1008.22 1008.44 1008.55 1008.46 1008.53 1008.76 1009.10 1009.46 1009.70 1009.64 1009.64 1009.94 1009.98 1009.96 1009.83 1009.98 1009.69 1009.17 1009.08 1008.80 1008.36 1008.39 1008.89 1009.52 1009.92 1009.97 1010.26 1010.77
1015.60 1015.68 1015.18 1014.25 1012.82 1012.41 1012.32 1009.91 1010.02 1009.83 1010.10 1010.06 1009.69 1009.46 1009.51 1008.64 1008.22 1008.58 1008.66 1009.20 1009.02 1009.28 1008.93 1008.97 1008.99 1009.12 1009.28 1009.44 1009.48 1009.63 1009.90 1010.11 1010.29 1010.21 1010.30 1010.12 1010.06 1010.09 1009.86 1009.56 1008.54 1008.11 1008.30 1008.54 1008.54 1009.71 1009.66 1009.13 1009.85
1015.73 1015.99 1015.76 1015.04 1013.89 1013.06 1012.58 1010.20 1010.28 1010.64 1010.32 1010.23 1009.56 1009.56 1009.36 1009.09 1009.23 1009.50 1009.66 1010.37 1011.24 1010.80 1010.14 1009.65 1009.68 1009.82 1009.74 1009.67 1009.74 1009.81 1009.98 1010.29 1010.32 1010.51 1010.47 1010.39 1010.25 1010.12 1010.16 1010.03 1009.46 1008.60 1008.27 1008.12 1008.34 1009.26 1009.01 1008.04 1009.69
1015.34 1015.34 1015.73 1015.32 1014.47 1013.63 1012.53 1010.65 1009.86 1010.89 1010.44 1009.93 1009.24 1009.51 1009.41 1009.78 1010.23 1010.32 1010.70 1011.42 1012.01 1012.41 1011.87 1010.95 1010.58 1010.70 1010.38 1010.14 1010.29 1010.46 1010.82 1010.67 1010.49 1010.52 1010.70 1010.49 1010.42 1010.10 1010.05 1009.70 1009.53 1009.12 1008.31 1007.97 1008.02 1007.93 1007.84 1008.01 1007.93
1015.54 1015.37 1015.15 1015.08 1014.31 1014.03 1012.87 1010.58 1010.35 1010.81 1010.27 1009.62 1008.99 1009.56 1009.93 1010.50 1011.22 1011.69 1012.08 1012.19 1013.47 1013.36 1013.07 1012.51 1011.71 1011.70 1011.60 1011.30 1011.14 1010.91 1011.21 1011.25 1010.95 1010.84 1010.78 1010.64 1010.79 1010.54 1010.20 1009.84 1009.62 1009.31 1008.87 1008.14 1007.46 1007.45 1007.58 1007.80 1007.97
1015.24 1015.41 1015.18 1014.81 1014.78 1014.09 1013.69 1011.35 1010.36 1010.65 1010.14 1009.60 1009.30 1009.54 1010.04 1010.97 1011.84 1012.72 1013.28 1013.32 1014.11 1014.23 1013.73 1013.30 1012.55 1012.11 1011.82 1011.42 1011.44 1011.56 1011.15 1011.26 1011.08 1010.95 1010.87 1010.83 1010.74 1010.61 1010.36 1009.93 1009.62 1009.32 1009.00 1008.52 1008.05 1007.51 1007.40 1007.40 1007.48
1015.11 1014.97 1015.15 1015.08 1015.06 1015.42 1014.90 1013.82 1011.97 1011.56 1011.61 1011.50 1011.58 1011.78 1012.05 1013.08 1013.75 1014.49 1014.61 1014.75 1014.52 1015.69 1014.85 1014.27 1013.52 1012.68 1011.83 1012.07 1012.00 1012.52 1012.46 1012.69 1012.53 1012.07 1011.34 1010.70 1010.46 1010.29 1010.03 1009.92 1009.65 1009.33 1008.83 1008.45 1007.97 1007.58 1007.13 1007.05 1007.29
1014.43 1014.79 1015.11 1015.32 1015.73 1015.97 1015.73 1016.17 1013.31 1013.28 1013.49 1013.70 1013.73 1013.85 1014.39 1014.89 1015.86 1016.12 1016.09 1016.09 1015.47 1015.28 1016.64 1015.06 1014.42 1013.32 1013.29 1013.25 1012.74 1012.91 1012.88 1012.94 1012.60 1012.27 1011.85 1010.98 1010.54 1010.27 1009.80 1009.65 1009.27 1008.95 1008.60 1008.20 1007.78 1007.36 1006.70 1006.22 1006.39
1014.46 1015.07 1015.63 1016.12 1016.45 1016.43 1015.50 1016.03 1015.48 1015.67 1016.14 1015.26 1015.13 1015.39 1015.67 1016.07 1016.97 1017.20 1017.29 1017.09 1016.81 1016.47 1016.86 1015.67 1015.47 1014.49 1014.31 1013.69 1013.55 1013.56 1013.01 1012.94 1012.86 1012.43 1012.11 1011.47 1010.86 1010.39 1009.86 1009.53 1009.27 1008.80 1008.10 1007.70 1007.18 1006.87 1006.26 1005.54 1005.42
1014.57 1015.23 1016.08 1016.89 1017.27 1016.57 1015.88 1016.52 1016.81 1017.26 1017.42 1016.73 1017.22 1017.79 1018.08 1018.28 1017.80 1018.31 1018.16 1018.10 1018.21 1017.95 1016.54 1016.56 1015.65 1015.83 1015.21 1014.50 1014.48 1013.75 1013.68 1013.54 1013.39 1012.81 1012.53 1011.76 1011.01 1010.54 1010.13 1009.68 1009.15 1008.56 1008.10 1007.35 1006.74 1006.27 1005.81 1004.89 1004.43
1014.24 1014.84 1015.60 1015.99 1016.67 1016.69 1016.23 1016.54 1017.12 1017.75 1018.19 1017.96 1018.50 1018.93 1019.36 1019.67 1019.77 1019.08 1019.49 1019.84 1019.51 1019.13 1018.70 1017.56 1016.92 1016.39 1015.63 1015.19 1015.12 1014.87 1014.75 1014.43 1014.03 1013.09 1012.59 1012.30 1011.55 1011.03 1010.48 1009.74 1009.15 1008.57 1007.65 1006.85 1006.23 1005.33 1004.78 1004.46 1003.65
1014.06 1014.63 1014.88 1015.68 1016.37 1016.82 1016.26 1016.84 1017.63 1017.86 1018.38 1018.62 1018.80 1019.09 1019.22 1019.65 1020.23 1020.05 1019.64 1020.18 1020.06 1019.24 1018.43 1017.52 1017.52 1017.08 1015.66 1015.81 1015.66 1015.41 1014.95 1014.43 1013.92 1013.50 1013.18 1012.74 1012.16 1011.37 1010.14 1009.56 1008.72 1007.92 1007.24 1006.55 1005.66 1004.55 1003.79 1003.31 1002.78
1012.69 1013.60 1014.83 1015.70 1016.32 1016.53 1015.73 1016.01 1016.45 1017.49 1018.27 1018.77 1019.20 1019.66 1019.97 1019.92 1020.15 1020.23 1020.41 1020.24 1020.44 1019.46 1019.28 1018.21 1018.26 1017.18 1016.81 1016.41 1016.19 1015.85 1015.66 1015.05 1014.43 1013.87 1013.27 1012.66 1012.28 1011.55 1010.50 1009.35 1008.37 1007.80 1006.88 1005.99 1005.35 1004.01 1002.58 1002.34 1001.89
1013.05 1013.36 1014.00 1014.59 1015.35 1015.67 1015.76 1015.36 1015.38 1016.43 1017.50 1018.22 1019.00 1019.55 1020.27 1020.55 1020.30 1020.44 1020.59 1020.96 1020.69 1020.26 1019.87 1019.16 1018.50 1018.10 1017.66 1017.19 1016.66 1016.32 1015.47 1014.94 1014.55 1014.12 1013.50 1012.89 1012.29 1011.63 1010.30 1009.64 1008.87 1007.94 1006.87 1005.99 1005.21 1003.86 1001.96 1001.37 1001.22
1011.44 1011.61 1012.73 1013.56 1014.72 1014.99 1015.28 1014.82 1014.80 1015.88 1016.84 1017.78 1018.62 1019.59 1020.15 1020.71 1020.91 1021.02 1021.01 1021.23 1021.17 1020.97 1019.76 1019.54 1019.09 1018.68 1018.35 1017.71 1016.93 1016.13 1015.63 1015.43 1014.77 1014.40 1013.79 1012.95 1012.60 1011.75 1010.91 1010.15 1009.28 1008.20 1007.19 1006.30 1005.39 1004.15 1002.78 1000.90 1000.36
Wind_Speed
5 6 0 5 5 6 3 6 3 8 9 3 5 1 5 3 5 5 3 2 6 8 9 9 11 11 9 9 8 8 12 14 13 14 14 15 16 17 17 16 16 16 15 16 15 14 13 11 10
4 1 5 3 6 4 6 4 2 5 6 10 7 2 2 3 1 3 3 5 6 8 8 10 12 13 12 10 10 9 10 12 13 13 13 14 15 16 17 16 16 16 15 15 15 14 12 10 10
0 4 4 5 3 5 5 2 6 13 9 2 7 3 4 4 1 6 4 8 8 7 7 7 13 13 13 12 12 11 10 10 11 13 14 13 15 16 16 15 15 15 15 15 14 13 11 10 10
3 5 5 4 5 6 5 5 7 11 10 3 4 2 3 2 5 6 4 8 8 7 7 9 10 11 14 13 11 11 12 11 11 11 14 14 14 15 15 14 14 15 15 14 13 12 11 10 9
5 3 2 2 5 5 2 5 6 9 8 6 1 2 1 5 4 7 6 5 7 6 6 10 12 10 10 12 13 12 11 11 12 12 12 13 14 13 14 14 13 13 14 14 13 11 11 10 10
5 4 4 3 5 4 3 5 5 7 9 11 12 3 3 6 2 3 4 5 4 8 6 7 12 12 12 11 11 11 11 11 12 12 12 13 13 13 13 13 13 12 11 11 11 11 10 10 10
6 4 3 3 6 5 2 5 5 6 8 8 9 4 4 3 5 5 5 5 4 5 6 6 7 9 10 10 10 11 12 12 12 12 11 11 10 11 12 13 13 12 10 10 10 10 10 10 10
6 5 2 4 4 7 1 5 3 6 14 7 4 5 5 6 8 5 5 5 5 5 5 5 5 5 6 6 10 10 11 12 12 12 12 11 10 11 11 11 12 12 11 10 11 10 10 10 10
3 5 2 5 4 5 4 7 3 5 6 5 4 2 6 3 6 4 3 0 2 2 4 4 5 5 5 4 6 8 10 10 10 9 10 8 6 7 8 9 10 12 12 11 11 10 10 9 10
5 5 10 7 3 5 13 6 8 5 8 5 6 9 2 4 5 6 7 7 6 6 7 7 7 5 4 3 4 4 3 3 4 5 5 6 9 6 6 7 10 11 11 11 9 9 10 8 4
3 5 5 4 7 6 6 11 4 2 4 5 9 11 11 4 8 9 9 8 8 8 4 8 7 7 6 3 2 2 2 2 3 6 8 7 6 5 7 5 4 4 8 4 6 5 4 6 5
3 5 4 5 7 6 9 8 9 8 10 8 9 11 7 12 8 8 10 10 7 8 7 4 5 5 6 4 3 2 3 4 3 4 4 4 4 5 7 6 7 7 4 7 6 5 6 7 6
5 2 6 9 9 9 8 7 12 13 14 8 10 9 11 10 11 10 11 3 4 3 5 7 7 5 3 4 2 2 2 1 1 3 5 6 6 6 8 7 7 7 6 6 6 7 7 7 7
3 4 7 6 12 9 16 11 5 8 15 10 8 9 7 8 12 11 9 6 5 8 9 7 9 9 8 6 6 4 4 3 1 1 3 5 5 5 5 7 8 7 5 6 7 9 9 9 8
4 6 6 8 6 7 8 7 8 9 7 9 14 10 9 10 10 11 12 7 6 7 8 9 9 8 10 7 6 5 4 5 5 4 7 6 6 7 6 5 6 7 7 9 7 6 6 6 7
5 4 1 5 3 5 2 6 10 4 15 16 8 9 15 14 11 14 6 7 7 7 9 8 8 9 9 7 5 4 4 4 4 4 4 6 9 11 6 7 7 8 7 7 7 7 8 8 8
3 3 4 6 5 4 4 16 3 16 13 15 11 11 8 11 8 8 10 8 7 6 8 9 8 9 7 6 4 5 6 5 4 3 3 5 5 7 8 9 7 8 7 6 3 6 8 7 8
6 5 3 2 6 8 11 26 16 7 7 11 14 11 9 4 6 8 12 11 10 8 8 10 9 8 6 4 3 4 5 4 4 4 4 5 4 5 4 5 8 8 5 6 12 12 8 4 9
3 4 5 5 9 8 15 23 20 6 7 16 19 11 7 7 6 10 12 10 8 9 10 10 11 10 8 5 3 2 4 3 5 4 8 8 7 8 7 5 5 7 8 6 7 7 10 9 10
9 12 13 6 10 7 11 23 19 6 9 14 16 6 7 7 8 11 11 12 10 8 9 10 10 10 7 5 3 4 2 2 2 4 7 7 10 9 8 6 6 5 6 9 6 7 5 5 7
11 10 11 14 2 5 6 15 7 14 6 8 9 7 8 12 12 11 12 12 11 11 11 11 10 9 10 9 6 4 3 3 3 7 6 8 10 10 9 8 6 6 4 5 7 7 11 8 3
9 7 6 4 5 2 3 11 15 9 11 14 13 17 16 14 14 12 12 13 13 11 10 11 11 12 12 12 8 7 4 4 4 7 8 9 9 9 9 9 7 7 6 7 7 7 8 8 7
9 5 3 1 1 2 5 2 7 10 10 10 10 14 15 15 13 12 10 10 12 13 9 9 12 14 13 11 10 6 7 6 6 7 11 10 9 11 10 11 12 11 8 8 8 10 11 10 10
6 3 3 4 3 2 6 8 4 8 9 12 9 14 16 16 14 14 13 11 12 11 9 11 11 13 12 12 12 10 11 10 9 10 8 8 8 9 10 11 10 11 10 9 9 11 13 13 11
3 5 2 3 1 6 2 2 3 6 10 19 16 16 16 15 15 14 15 15 12 11 14 10 12 11 11 12 12 13 12 11 11 10 8 12 8 8 10 12 12 10 12 12 11 11 13 14 12
7 8 5 6 3 3 5 5 2 4 8 14 13 12 10 11 10 11 13 12 12 11 8 9 11 10 12 12 12 11 11 7 7 9 9 8 8 9 12 11 12 14 14 13 13 10 11 14 11
5 4 2 3 2 1 4 4 5 5 5 7 8 8 9 7 5 8 9 10 11 11 13 14 13 11 14 13 10 10 10 11 11 12 10 8 10 11 12 13 12 13 13 13 14 11 11 13 13
7 9 4 1 4 5 4 4 5 7 4 4 4 4 4 6 9 9 10 11 11 12 11 14 13 14 13 12 10 10 10 10 10 10 11 12 12 13 13 13 13 13 13 13 14 14 12 13 11
3 3 1 4 4 5 2 5 6 9 9 9 6 6 4 5 7 8 7 8 8 9 10 10 11 12 12 10 11 9 10 11 12 11 11 12 13 13 14 14 14 14 14 14 14 15 15 13 13
11 10 7 6 5 4 4 6 7 10 11 9 8 9 8 6 6 6 7 7 8 9 11 11 12 13 11 11 11 12 12 11 11 13 13 13 13 14 14 14 14 15 15 15 15 16 16 14 13
Wind_Direction
324 311 350 44 53 62 283 264 266 326 339 308 292 67 137 118 166 210 262 166 131 146 155 165 163 149 140 134 127 128 133 131 133 135 138 137 136 138 139 142 144 147 150 154 156 155 151 140 127
324 1 36 76 88 68 271 258 242 286 267 316 303 92 27 74 119 146 139 178 152 154 162 166 166 154 150 148 144 141 142 141 143 143 143 145 144 146 148 148 149 151 154 159 159 157 155 143 138
253 45 78 83 101 175 222 236 298 318 314 291 306 66 109 163 177 180 214 152 137 151 164 170 166 161 159 160 160 155 150 149 150 152 152 154 154 154 153 152 153 155 155 161 165 162 152 148 150
55 17 34 97 227 252 220 325 335 320 313 238 222 155 83 244 189 189 166 143 149 160 165 161 170 169 164 166 167 167 162 162 165 165 162 162 162 161 158 159 160 160 160 162 166 164 159 159 160
34 54 55 340 264 263 307 282 310 319 298 266 253 235 77 355 349 129 160 155 167 168 168 164 164 168 174 171 171 176 176 173 173 179 174 170 168 168 165 165 168 168 167 167 168 170 166 162 164
43 92 59 268 273 280 296 283 309 0 342 326 353 24 309 310 359 212 173 166 163 160 160 163 172 174 177 175 177 178 180 184 185 186 183 181 178 174 174 173 174 176 173 173 173 170 170 171 171
113 86 195 240 269 312 145 346 25 345 344 326 313 344 295 288 236 217 205 144 143 157 152 158 174 180 178 183 184 184 185 188 191 190 190 191 186 183 183 184 182 183 183 179 177 176 176 177 177
107 92 169 236 237 280 222 6 296 31 310 303 32 27 312 263 224 206 183 178 163 164 158 166 168 174 183 185 188 190 195 194 192 192 192 191 194 194 195 191 191 186 190 188 186 183 183 180 182
113 70 199 252 218 251 303 339 279 236 265 341 272 208 276 13 3 337 353 287 147 167 177 178 177 188 180 188 196 200 202 200 197 195 197 192 202 204 205 200 197 191 193 194 192 188 187 185 187
112 134 209 217 239 275 304 301 310 311 307 282 307 310 224 271 250 269 266 221 216 204 203 184 177 174 168 182 192 189 204 199 209 204 196 201 211 207 204 208 207 203 198 197 197 193 192 179 193
178 201 218 252 269 303 296 311 338 282 286 267 295 307 311 204 254 246 255 237 218 214 198 187 170 162 168 174 183 198 169 161 202 218 214 216 213 213 213 213 211 202 204 190 201 198 198 189 189
314 264 291 283 325 307 307 300 297 220 240 254 264 268 293 302 290 252 246 249 208 204 225 139 131 151 160 149 182 217 209 173 185 206 215 213 219 217 223 218 215 207 189 193 186 195 198 196 194
203 281 320 313 308 288 277 266 271 270 272 261 259 265 270 273 274 267 244 255 241 162 98 100 103 105 113 96 83 182 209 243 259 202 204 214 221 228 229 226 220 213 188 193 193 194 194 199 198
301 331 307 292 291 297 286 285 2 277 305 308 320 312 295 281 277 285 271 206 134 120 105 102 90 86 85 76 73 61 41 27 334 257 245 244 244 238 227 232 232 227 196 198 196 200 200 203 201
321 326 319 265 284 270 324 311 222 293 0 344 332 333 338 334 316 284 279 152 128 108 111 93 80 76 77 74 63 58 44 42 45 15 357 312 265 247 233 232 227 216 202 194 196 194 189 200 205
357 32 349 290 302 283 23 234 323 351 345 326 324 326 330 325 303 301 147 116 100 103 83 70 77 69 67 62 58 53 45 56 51 15 359 0 336 333 281 240 232 229 215 204 202 211 200 205 209
333 230 206 311 296 312 347 293 301 334 336 310 309 308 310 299 346 27 44 34 74 63 87 77 66 66 68 58 73 70 63 44 35 45 24 355 328 317 318 317 266 248 230 210 224 235 216 195 215
215 185 209 220 295 322 279 277 288 317 282 289 282 293 287 342 83 67 56 44 17 28 54 72 63 49 48 66 64 53 60 26 38 14 20 4 351 358 331 305 312 292 247 235 204 220 223 192 232
302 253 222 236 257 284 265 276 291 315 295 285 287 299 272 104 78 68 65 51 40 22 33 46 55 37 32 16 17 41 46 348 10 14 2 353 0 351 343 338 332 330 314 256 233 239 238 212 210
268 282 284 254 251 234 279 282 297 324 267 270 280 266 168 126 86 67 64 65 34 31 29 37 57 54 50 47 25 44 355 320 324 15 354 359 346 339 331 331 321 313 314 320 276 224 239 236 195
243 253 275 276 260 247 318 290 334 333 322 304 284 277 179 144 115 88 67 56 39 25 26 28 35 50 45 44 34 355 23 339 350 3 352 347 334 331 324 318 309 301 282 277 294 270 228 243 243
252 232 247 274 30 280 71 292 334 343 26 8 14 27 57 73 70 64 60 51 52 22 16 22 21 26 35 31 42 41 50 7 346 324 322 333 329 324 324 315 306 296 293 283 278 278 252 228 225
257 174 213 233 104 343 196 209 284 4 360 11 51 60 55 60 56 62 62 56 48 32 358 19 19 29 25 20 28 34 28 1 338 336 329 331 333 324 322 322 320 314 301 289 271 269 264 237 235
135 109 49 35 82 301 222 175 313 12 339 337 72 62 72 68 52 44 37 39 42 47 357 21 15 26 19 21 21 15 20 1 347 346 333 332 328 323 320 319 314 301 296 282 287 279 268 247 222
117 137 270 295 255 238 263 158 56 22 16 42 53 49 40 40 55 32 22 19 19 18 18 9 17 18 18 23 12 15 7 359 344 344 329 329 325 325 321 322 313 309 298 293 285 271 274 265 224
184 166 190 230 211 276 324 254 99 82 85 89 84 76 55 34 22 54 32 12 4 9 1 12 16 13 21 23 15 14 2 349 332 342 335 322 322 318 313 312 307 299 295 294 281 264 263 260 238
192 188 208 96 168 47 215 117 144 137 112 92 96 100 108 104 42 34 34 14 356 358 10 15 4 6 24 19 8 6 1 354 348 343 336 329 322 317 324 317 314 313 307 293 282 271 253 251 242
177 159 95 98 208 228 242 196 182 176 172 131 115 90 84 80 54 42 26 9 351 359 358 11 4 10 10 9 6 4 351 353 353 350 348 343 331 325 322 328 331 322 322 314 309 297 249 244 247
152 189 162 131 171 195 260 248 185 163 177 175 163 124 86 56 72 58 42 3 356 355 360 8 6 10 8 5 8 1 3 4 4 359 356 350 342 336 341 337 332 332 332 331 317 309 271 241 239
202 185 168 144 204 218 147 263 153 167 180 169 153 126 113 93 70 54 38 11 0 354 6 6 10 13 5 360 3 9 9 4 8 8 3 3 354 351 350 344 342 343 338 336 328 318 312 257 235